| time (UTC) | temp F | wind direction | speed MPH | gust MPH | rain 1hr in | rain 24hr in | rain mn in | humidity % | barometer mb |
| 20260505080036 | 67 | 189 | 1.0 | 7.0 | 0.00 | 0.00 | 0.00 | 77 | 1007.3 |
| 20260505074537 | 67 | 138 | 0.0 | 5.0 | 0.00 | 0.00 | 0.00 | 76 | 1007.7 |
| 20260505073044 | 67 | 0 | 1.0 | 3.0 | 0.00 | 0.00 | 0.00 | 76 | 1007.5 |
| 20260505071545 | 67 | 0 | 0.0 | 2.0 | 0.00 | 0.00 | 0.00 | 75 | 1007.7 |
| 20260505070034 | 67 | 0 | 0.0 | 2.0 | 0.00 | 0.00 | 0.00 | 75 | 1008.0 |
| 20260505064539 | 67 | 38 | 0.0 | 4.0 | 0.00 | 0.00 | 0.00 | 75 | 1008.0 |
| 20260505063038 | 67 | 0 | 0.0 | 2.0 | 0.00 | 0.00 | 0.00 | 74 | 1008.3 |
| 20260505061536 | 66 | 0 | 0.0 | 4.0 | 0.00 | 0.00 | 0.00 | 74 | 1008.3 |
| 20260505060045 | 66 | 0 | 0.0 | 2.0 | 0.00 | 0.00 | 0.00 | 74 | 1008.5 |
| 20260505054536 | 65 | 304 | 0.0 | 1.0 | 0.00 | 0.00 | 0.00 | 74 | 1008.7 |
| 20260505053034 | 65 | 0 | 0.0 | 0.0 | 0.00 | 0.00 | 0.00 | 74 | 1008.9 |
| 20260505051550 | 65 | 0 | 0.0 | 1.0 | 0.00 | 0.00 | 0.00 | 74 | 1009.0 |
| 20260505041537 | 65 | 0 | 0.0 | 2.0 | 0.00 | 0.00 | 0.00 | 75 | 1009.5 |
| 20260505040040 | 64 | 0 | 0.0 | 2.0 | 0.00 | 0.00 | 0.00 | 76 | 1009.5 |
| 20260505034540 | 65 | 0 | 0.0 | 3.0 | 0.00 | 0.00 | 0.00 | 76 | 1009.6 |
| 20260505033037 | 64 | 64 | 0.0 | 1.0 | 0.00 | 0.00 | 0.00 | 77 | 1009.8 |
| 20260505031535 | 65 | 0 | 0.0 | 0.0 | 0.00 | 0.00 | 0.00 | 77 | 1009.9 |
| 20260505030035 | 65 | 0 | 0.0 | 0.0 | 0.00 | 0.00 | 0.00 | 76 | 1009.7 |
| 20260505024537 | 66 | 212 | 0.0 | 1.0 | 0.00 | 0.00 | 0.00 | 75 | 1009.5 |
| 20260505023038 | 66 | 0 | 0.0 | 0.0 | 0.00 | 0.00 | 0.00 | 74 | 1009.2 |
| 20260505021536 | 67 | 0 | 0.0 | 1.0 | 0.00 | 0.00 | 0.00 | 72 | 1008.9 |
| 20260505020035 | 67 | 0 | 0.0 | 0.0 | 0.00 | 0.00 | 0.00 | 71 | 1008.9 |
| 20260505014536 | 68 | 0 | 0.0 | 1.0 | 0.00 | 0.00 | 0.00 | 69 | 1008.8 |
| 20260505013057 | 69 | 36 | 0.0 | 2.0 | 0.00 | 0.00 | 0.00 | 68 | 1008.7 |
| 20260505011535 | 69 | 0 | 0.0 | 1.0 | 0.00 | 0.00 | 0.00 | 68 | 1008.5 |
| 20260505010038 | 70 | 0 | 0.0 | 1.0 | 0.00 | 0.00 | 0.00 | 66 | 1008.4 |
| 20260505004537 | 71 | 0 | 0.0 | 1.0 | 0.00 | 0.00 | 0.00 | 65 | 1008.5 |
| 20260505003035 | 72 | 0 | 0.0 | 1.0 | 0.00 | 0.00 | 0.00 | 63 | 1008.6 |
| 20260505001537 | 72 | 0 | 0.0 | 2.0 | 0.00 | 0.00 | 0.00 | 63 | 1008.6 |
| 20260505000051 | 73 | 0 | 0.0 | 1.0 | 0.00 | 0.00 | 0.00 | 62 | 1008.7 |
| 20260504234538 | 73 | 0 | 0.0 | 1.0 | 0.00 | 0.00 | 0.00 | 61 | 1008.9 |
| 20260504233041 | 73 | 0 | 0.0 | 4.0 | 0.00 | 0.00 | 0.00 | 62 | 1009.0 |
| 20260504231535 | 74 | 0 | 0.0 | 6.0 | 0.00 | 0.00 | 0.00 | 59 | 1009.3 |
| 20260504230035 | 74 | 0 | 0.0 | 4.0 | 0.00 | 0.00 | 0.00 | 57 | 1009.4 |
| 20260504224537 | 75 | 191 | 0.0 | 2.0 | 0.00 | 0.00 | 0.00 | 58 | 1009.7 |
| 20260504223038 | 75 | 0 | 0.0 | 5.0 | 0.00 | 0.00 | 0.00 | 56 | 1009.7 |
| 20260504221535 | 75 | 0 | 0.0 | 8.0 | 0.00 | 0.00 | 0.00 | 58 | 1009.6 |
| 20260504220041 | 75 | 207 | 1.0 | 6.0 | 0.00 | 0.00 | 0.00 | 57 | 1009.8 |
| 20260504214541 | 75 | 266 | 1.0 | 6.0 | 0.00 | 0.00 | 0.00 | 56 | 1009.9 |
| 20260504213035 | 76 | 318 | 1.0 | 6.0 | 0.00 | 0.00 | 0.00 | 55 | 1009.9 |
| 20260504211539 | 76 | 182 | 0.0 | 5.0 | 0.00 | 0.00 | 0.00 | 56 | 1010.1 |
| 20260504210037 | 76 | 150 | 0.0 | 4.0 | 0.00 | 0.00 | 0.00 | 54 | 1010.3 |
| 20260504204536 | 77 | 287 | 0.0 | 3.0 | 0.00 | 0.00 | 0.00 | 52 | 1010.7 |
| 20260504203037 | 77 | 91 | 2.0 | 5.0 | 0.00 | 0.00 | 0.00 | 52 | 1011.0 |
| 20260504201536 | 77 | 264 | 2.0 | 6.0 | 0.00 | 0.00 | 0.00 | 51 | 1011.2 |
| 20260504200038 | 77 | 278 | 0.0 | 4.0 | 0.00 | 0.00 | 0.00 | 51 | 1011.6 |
| 20260504194536 | 76 | 254 | 0.0 | 8.0 | 0.00 | 0.00 | 0.00 | 55 | 1011.8 |
| 20260504193036 | 75 | 276 | 2.0 | 9.0 | 0.00 | 0.00 | 0.00 | 54 | 1012.1 |
| 20260504191537 | 76 | 292 | 1.0 | 3.0 | 0.00 | 0.00 | 0.00 | 51 | 1012.2 |
| 20260504190039 | 75 | 278 | 1.0 | 8.0 | 0.00 | 0.00 | 0.00 | 52 | 1012.4 |
| 20260504184535 | 75 | 97 | 1.0 | 5.0 | 0.00 | 0.00 | 0.00 | 53 | 1012.5 |
| 20260504183033 | 75 | 291 | 1.0 | 4.0 | 0.00 | 0.00 | 0.00 | 52 | 1012.8 |
| 20260504181538 | 74 | 188 | 1.0 | 6.0 | 0.00 | 0.00 | 0.00 | 55 | 1012.7 |
| 20260504180035 | 74 | 307 | 2.0 | 6.0 | 0.00 | 0.00 | 0.00 | 54 | 1012.9 |
| 20260504174538 | 74 | 266 | 1.0 | 4.0 | 0.00 | 0.00 | 0.00 | 54 | 1013.2 |
| 20260504173038 | 74 | 259 | 0.0 | 7.0 | 0.00 | 0.00 | 0.00 | 55 | 1013.5 |
| 20260504171535 | 73 | 0 | 0.0 | 4.0 | 0.00 | 0.00 | 0.00 | 58 | 1013.5 |
| 20260504081537 | 63 | 0 | 0.0 | 0.0 | 0.00 | 0.00 | 0.00 | 70 | 1014.5 |